STARLINK-36357

Last updated on Fri Mar 27 2026 00:02:06 GMT+0000 (Coordinated Universal Time)

1 67963U 26038C 26085.50002314 -.02120866 00000+0 -61196-1 0 9996 2 67963 97.2856 96.3298 0001839 102.8073 213.6921 15.39481071 5906

Satellite not in orbit